map of XIY home
Great Circle Mapper logo
XIY - Airport
Location
City:  Xi'an, Shaanxi, China
Near (Alt.):Xian
Name:Xianyang International Airport
ICAO / IATA:ZLXY / XIY

Details
Type:Airport (Aerodrome, Airfield)
Use:Public/Civil, International (customs port of entry)
Latitude:34°26'50"N (34.447119)
Longitude:108°45'06"E (108.751592)
Datum:WGS 1984
Elevation:1572 ft (479 m)
Runways:1
Longest:9842 × 148 ft (3000 × 45 m), paved

Time
Time Zone:UTC+8
Local Time:

Weather
METAR:ZLXY 251700Z 28001MPS 3000 BR NSC 09/08 Q1016 BECMG TL1800 2800

Related Locations
Nearby:
Farthest:SCAF: 12443 mi / 20026 km
Alhué [San Alfonso], CL

Find:

   beyond  
but within

Other Information
Maps:
NOTAMs:
Links:
Sources:

  
flag of China   

Sectional Chart

Flight Planning
at skyvector.com

Satellite Image

Google Maps Satellite View

 

Copyright © 2004-2014 Karl L. Swartz. All rights reserved.
The Great Circle Mapper name and logo are trademarks of the Great Circle Mapper.
All other trademarks mentioned herein belong to their respective owners.
Please see credits for attibutions and further copyright information.

  Follow gcmap on Facebook Follow gcmap on Twitter

hCard Microformat

Geo Microformat